Stations météo

réclame
Mon MeteoGroup
München-Flughafen, Allemagne (10870): Température de l'air & dewpoint: 13.06.2019 17:00:00 - 19.06.2019 17:00:00 (CEST)München-Flughafen, Allemagne (10870): Température de l'air 5cm & Température de l'air -5cm: 13.06.2019 17:00:00 - 19.06.2019 17:00:00 (CEST)München-Flughafen, Allemagne (10870): Température de l'air -20cm & Température de l'air -100cm: 13.06.2019 17:00:00 - 19.06.2019 17:00:00 (CEST)München-Flughafen, Allemagne (10870): Vitesse du vent & gusts: 13.06.2019 17:00:00 - 19.06.2019 17:00:00 (CEST)München-Flughafen, Allemagne (10870): Direction du vent: 13.06.2019 17:00:00 - 19.06.2019 17:00:00 (CEST)München-Flughafen, Allemagne (10870): reduced air pressure: 13.06.2019 17:00:00 - 19.06.2019 17:00:00 (CEST)München-Flughafen, Allemagne (10870): visibility: 13.06.2019 17:00:00 - 19.06.2019 17:00:00 (CEST)München-Flughafen, Allemagne (10870): Ensoleillement: 13.06.2019 17:00:00 - 19.06.2019 17:00:00 (CEST)München-Flughafen, Allemagne (10870): Quantités de précipitations: 13.06.2019 17:00:00 - 19.06.2019 17:00:00 (CEST)
Date & Time tt [°C] td [°C] tt 5cm [°C] tt -5cm [°C] tt -20cm [°C] tt -100cm [°C] ff [km/h] ff [knt] fx [km/h] fx [knt] dd ppp [hPa] vv [km] sd [min] rr [mm]
19.06.2019 17:00:00 28,6 10,7 33,7 39,6 24,8 16,4 13 7 21 12 NW 1008,3 10 60 0,0
19.06.2019 16:00:00 28,4 10,9 34,5 40,7 24,1 16,3 10 5 16 9 W 1008,9 80 60 0,0
19.06.2019 15:00:00 28,2 9,9 35,2 41,4 23,5 16,3 8 4 13 7 WNW 1009,6 10 58 0,0
19.06.2019 14:00:00 26,5 10,8 31,8 39,0 22,8 16,3 5 3 21 11 SW 1010,4 80 60 0,0
19.06.2019 13:00:00 26,1 12,0 34,5 38,3 22,2 16,3 11 6 23 13 SE 1010,7 10 60 0,0
19.06.2019 12:00:00 25,3 13,7 33,0 35,6 21,8 16,3 9 5 25 13 E 1010,9 80 60 0,0
19.06.2019 11:00:00 24,0 12,3 29,3 31,9 21,6 16,3 5 3 15 8 - 1011,4 10 60 0,0
19.06.2019 10:00:00 22,1 14,3 26,4 26,8 21,6 16,3 5 3 10 6 - 1011,9 10 37 0,0
19.06.2019 09:00:00 20,0 13,9 21,7 22,9 21,7 16,3 6 3 12 7 S 1012,6 80 0 0,0
19.06.2019 08:00:00 19,1 14,8 20,3 21,4 22,0 16,3 5 3 9 5 SSE 1012,6 10 3 0,0
19.06.2019 07:00:00 17,7 13,9 17,9 19,5 22,2 16,2 5 3 8 4 SSE 1012,7 10 0 0,0
19.06.2019 06:00:00 16,1 13,2 14,9 18,6 22,5 16,2 2 1 9 5 - 1013,1 10 0 0,0
19.06.2019 05:00:00 16,2 13,2 15,0 19,0 22,9 16,2 6 3 13 7 W 1013,1 60 0 0,0
19.06.2019 04:00:00 18,0 13,7 16,0 19,6 23,2 16,2 5 3 8 4 W 1012,8 60 0 0,0
19.06.2019 03:00:00 18,2 13,3 16,3 20,1 23,5 16,2 5 3 21 11 S 1012,9 50 0 0,0
19.06.2019 02:00:00 18,9 13,5 17,8 20,3 23,9 16,2 10 5 26 14 WSW 1013,5 50 0 0,0
19.06.2019 01:00:00 18,4 14,9 17,3 20,5 24,3 16,2 22 12 34 18 SW 1014,0 10 0 0,0
19.06.2019 00:00:00 15,6 13,8 14,2 21,0 24,7 16,2 2 1 8 4 - 1014,1 10 0 0,0
18.06.2019 23:00:00 16,7 13,9 14,6 22,1 25,0 16,2 3 1 4 2 WSW 1013,4 40 0 0,0
18.06.2019 22:00:00 18,3 14,5 15,6 23,9 25,2 16,2 5 3 5 3 NW 1013,1 10 0 0,0
18.06.2019 21:00:00 21,8 13,7 18,0 26,5 25,2 16,2 4 2 5 3 E 1012,2 45 4 0,0
18.06.2019 20:00:00 25,5 13,3 24,7 31,1 25,0 16,2 4 2 13 7 - 1011,8 10 60 0,0
18.06.2019 19:00:00 26,6 14,1 28,4 34,5 24,7 16,2 6 4 13 7 NNE 1011,4 50 60 0,0
18.06.2019 18:00:00 27,1 14,2 31,4 36,8 24,2 16,2 8 4 16 9 - 1011,5 10 55 0,0
18.06.2019 17:00:00 26,8 11,7 32,4 38,7 23,5 16,2 5 3 16 9 - 1011,9 10 60 0,0
18.06.2019 16:00:00 26,9 10,4 33,4 39,7 22,8 16,2 4 2 21 11 - 1012,4 10 60 0,0
18.06.2019 15:00:00 26,6 12,2 34,1 40,3 22,0 16,2 5 3 16 8 W 1012,9 10 59 0,0
18.06.2019 14:00:00 26,1 16,2 34,4 39,0 21,2 16,2 9 5 16 9 - 1013,4 10 58 0,0
18.06.2019 13:00:00 24,9 15,0 32,1 37,5 20,5 16,2 4 2 13 7 - 1014,0 10 60 0,0
18.06.2019 12:00:00 23,6 15,6 32,6 34,8 19,9 16,2 4 2 13 7 - 1014,7 10 60 0,0
18.06.2019 11:00:00 21,9 14,7 27,4 31,3 19,5 16,2 8 4 15 8 ENE 1015,2 10 60 0,0
18.06.2019 10:00:00 21,1 14,7 26,1 27,4 19,4 16,2 8 4 15 8 E 1015,5 10 59 0,0
18.06.2019 09:00:00 19,4 13,8 23,0 23,3 19,4 16,1 5 3 15 8 E 1016,2 10 60 0,0
18.06.2019 08:00:00 18,2 14,0 20,9 19,5 19,6 16,1 8 4 13 7 ENE 1016,2 10 60 0,0
18.06.2019 07:00:00 16,1 13,3 16,2 16,2 19,9 16,1 5 3 8 4 N 1016,2 10 60 0,0
18.06.2019 06:00:00 11,9 11,7 10,3 14,3 20,3 16,1 4 2 8 4 - 1016,9 10 5 0,0
18.06.2019 05:00:00 12,0 11,8 9,2 14,7 20,6 16,1 2 1 9 5 - 1017,0 10 0 0,0
18.06.2019 04:00:00 14,4 13,4 10,3 15,4 20,9 16,1 5 3 11 6 NE 1016,4 10 0 0,0
18.06.2019 03:00:00 16,5 13,1 12,5 16,3 21,3 16,1 8 4 15 8 NE 1016,4 40 0 0,0
18.06.2019 02:00:00 17,3 13,5 13,6 16,9 21,6 16,1 8 5 15 8 NE 1016,8 45 0 0,0
18.06.2019 01:00:00 17,7 13,3 14,0 17,6 21,9 16,1 8 4 11 6 NE 1017,0 10 0 0,0
18.06.2019 00:00:00 17,7 13,9 12,7 18,3 22,2 16,1 8 4 22 12 ENE 1017,0 10 0 0,0
17.06.2019 23:00:00 18,5 13,8 13,6 19,8 22,4 16,1 5 3 12 6 ENE 1016,9 10 0 0,0
17.06.2019 22:00:00 20,1 13,4 16,7 21,4 22,6 16,1 8 4 11 6 ESE 1016,6 10 0 0,0
17.06.2019 21:00:00 21,4 13,7 19,0 23,7 22,6 16,1 9 5 16 9 E 1015,9 10 57 0,0
17.06.2019 20:00:00 23,1 12,7 22,8 26,7 22,4 16,1 11 6 22 12 E 1015,8 10 60 0,0
17.06.2019 19:00:00 24,0 12,5 25,4 29,4 22,1 16,1 13 7 27 14 ENE 1015,6 10 59 0,0
17.06.2019 18:00:00 23,2 13,0 24,7 29,6 21,7 16,1 21 11 33 18 E 1015,9 10 44 0,0
17.06.2019 17:00:00 24,1 13,4 27,8 32,2 21,3 16,1 22 12 35 19 E 1016,2 10 60 0,0
17.06.2019 16:00:00 23,2 13,8 27,5 30,9 20,7 16,1 20 11 34 19 E 1016,9 50 37 0,0
17.06.2019 15:00:00 22,8 13,4 24,8 31,3 20,1 16,1 24 13 35 19 E 1017,7 50 38 0,0
17.06.2019 14:00:00 23,0 13,7 28,3 33,1 19,4 16,1 18 10 31 17 ENE 1017,8 10 49 0,0
17.06.2019 13:00:00 22,6 14,4 29,2 31,4 18,9 16,1 18 10 28 15 ENE 1018,2 40 56 0,0
17.06.2019 12:00:00 20,9 13,3 25,1 28,0 18,4 16,1 15 8 27 15 ENE 1019,0 10 49 0,0
17.06.2019 11:00:00 19,9 13,0 23,5 27,1 18,0 16,1 10 5 21 11 NE 1019,6 40 56 0,0
17.06.2019 10:00:00 19,1 14,2 24,7 24,4 17,8 16,1 8 4 15 8 ENE 1020,0 10 60 0,0
17.06.2019 09:00:00 17,4 13,9 21,9 21,1 17,9 16,1 2 1 9 5 - 1020,7 10 60 0,0
17.06.2019 08:00:00 14,5 12,7 16,9 17,4 18,0 16,1 4 2 5 3 ENE 1021,6 2,0 60 0,0
17.06.2019 07:00:00 11,7 11,7 12,4 13,7 18,3 16,1 4 2 4 2 - 1022,2 4,0 16 0,0
17.06.2019 06:00:00 9,3 9,3 9,0 12,0 18,6 16,1 2 1 4 2 - 1022,7 8 0 0,0
17.06.2019 05:00:00 8,9 8,9 7,9 11,9 18,9 16,1 2 1 8 4 SE 1022,7 8 0 0,0
17.06.2019 04:00:00 10,1 10,1 8,3 12,4 19,2 16,1 2 1 8 4 N 1022,3 1,2 0 0,0
17.06.2019 03:00:00 10,5 10,5 8,9 12,9 19,6 16,1 8 4 9 5 SSE 1022,4 10 0 0,0
17.06.2019 02:00:00 12,1 12,1 9,1 13,5 19,9 16,1 5 3 9 5 NW 1022,3 10 0 0,0
17.06.2019 01:00:00 11,2 11,0 9,7 14,1 20,2 16,1 5 3 8 4 NW 1023,1 10 0 0,0
17.06.2019 00:00:00 12,4 12,1 10,3 15,0 20,5 16,0 2 1 5 3 - 1022,6 10 0 0,0
16.06.2019 23:00:00 15,3 13,0 12,6 16,1 20,7 16,0 4 2 5 3 - 1022,3 10 0 0,0
16.06.2019 22:00:00 16,9 13,3 14,1 17,2 20,9 16,0 5 3 12 6 NW 1021,9 10 0 0,0
16.06.2019 21:00:00 17,2 13,6 14,7 18,7 21,0 16,0 5 3 8 4 WNW 1021,1 10 0 0,0
16.06.2019 20:00:00 18,4 13,7 17,8 20,4 21,0 16,0 5 3 16 9 NW 1020,9 10 0 0,0
16.06.2019 19:00:00 19,2 13,6 19,6 21,8 21,0 16,0 8 4 15 8 NW 1020,6 10 0 0,0
16.06.2019 18:00:00 19,7 12,4 21,3 23,5 20,8 16,0 8 4 16 9 NNW 1020,3 10 1 0,0
16.06.2019 17:00:00 19,6 13,2 21,4 24,5 20,5 16,0 12 6 23 12 NW 1020,3 70 26 0,0
16.06.2019 16:00:00 20,2 12,7 24,7 25,7 20,3 16,0 13 7 25 13 NNW 1020,2 70 36 0,0
16.06.2019 15:00:00 20,1 13,1 23,7 24,8 20,1 15,9 16 8 24 13 WNW 1020,1 60 33 0,0
16.06.2019 14:00:00 18,7 12,6 21,3 22,7 19,9 15,9 13 7 27 14 W 1020,8 10 3 0,0
16.06.2019 13:00:00 19,0 13,1 24,3 24,5 19,9 15,9 18 10 29 15 WNW 1020,7 10 37 0,0
16.06.2019 12:00:00 17,6 14,0 20,7 22,1 19,9 15,9 13 7 23 12 WNW 1021,1 10 9 0,0
16.06.2019 11:00:00 15,7 13,5 15,6 18,0 20,1 15,9 10 6 22 12 W 1021,4 50 0 0,0
16.06.2019 10:00:00 15,1 13,8 15,6 17,8 20,3 15,9 13 7 26 14 W 1021,1 9 0 0,2
16.06.2019 09:00:00 14,4 13,7 14,5 16,7 20,6 15,9 16 9 28 15 WSW 1020,9 6 0 0,0
16.06.2019 08:00:00 14,9 13,3 14,7 16,6 20,9 15,9 16 9 26 14 W 1020,3 10 0 0,0
16.06.2019 07:00:00 14,6 13,3 14,4 16,3 21,2 15,8 15 8 27 15 W 1019,7 10 0 0,0
16.06.2019 06:00:00 14,3 13,0 13,9 16,2 21,6 15,8 15 8 29 16 W 1019,3 10 0 0,0
16.06.2019 05:00:00 14,8 13,7 14,4 16,5 21,9 15,8 16 9 31 17 W 1018,7 10 0 0,4
16.06.2019 04:00:00 14,8 14,0 14,5 17,0 22,3 15,8 24 13 31 17 SW 1018,7 30 0 0,1
16.06.2019 03:00:00 15,1 13,4 14,4 17,2 22,7 15,8 11 6 44 24 W 1018,2 10 0 2,5
16.06.2019 02:00:00 15,4 14,7 15,1 18,0 23,0 15,8 27 15 66 36 W 1018,2 9 0 3,4
16.06.2019 01:00:00 19,5 13,1 18,5 21,1 23,2 15,8 4 2 11 6 WNW 1015,2 40 0 0,0
16.06.2019 00:00:00 18,7 12,9 15,8 21,5 23,5 15,8 2 1 9 5 NW 1014,3 10 0 0,0
15.06.2019 23:00:00 19,4 13,1 17,7 22,3 23,7 15,8 6 4 11 6 N 1014,2 50 0 0,0
15.06.2019 22:00:00 20,2 13,4 19,5 23,1 23,9 15,7 7 4 16 9 NNW 1013,9 40 0 0,0
15.06.2019 21:00:00 21,2 14,3 20,1 24,7 23,9 15,7 8 4 15 8 NNW 1013,2 10 0 0,0
15.06.2019 20:00:00 22,5 14,3 21,9 27,0 23,8 15,7 8 4 16 9 NNE 1013,3 10 9 0,0
15.06.2019 19:00:00 24,5 13,9 27,5 31,0 23,7 15,7 10 5 16 9 N 1013,0 40 47 0,0
15.06.2019 18:00:00 23,9 14,3 25,4 30,0 23,3 15,7 9 5 21 12 NNW 1013,0 10 4 0,0
15.06.2019 17:00:00 24,6 14,5 28,7 33,5 22,9 15,7 15 8 27 15 NW 1013,3 10 49 0,0
15.06.2019 16:00:00 25,0 14,1 31,4 34,5 22,4 15,7 10 6 29 16 NNW 1013,4 50 49 0,0
15.06.2019 15:00:00 24,9 13,0 33,2 34,6 21,9 15,7 15 8 31 17 W 1013,4 50 60 0,0
15.06.2019 14:00:00 25,4 13,8 32,3 34,3 21,5 15,7 16 9 31 17 WNW 1013,4 10 60 0,0
15.06.2019 13:00:00 24,6 13,2 29,5 31,4 21,1 15,6 21 11 34 18 WNW 1013,4 10 60 0,0
15.06.2019 12:00:00 25,0 14,4 31,6 30,2 20,8 15,6 21 11 35 19 WNW 1012,7 10 60 0,0
15.06.2019 11:00:00 24,4 12,6 28,4 28,4 20,7 15,6 21 11 40 22 W 1012,6 50 60 0,0
15.06.2019 10:00:00 24,4 12,7 27,6 25,6 20,6 15,6 29 16 46 25 W 1011,9 40 60 0,0
15.06.2019 09:00:00 23,5 13,9 25,6 23,1 20,7 15,6 31 17 41 22 WSW 1011,2 30 60 0,0
15.06.2019 08:00:00 21,1 15,6 22,4 20,2 21,0 15,6 21 11 32 17 W 1010,6 30 28 0,0
15.06.2019 07:00:00 16,2 15,4 15,6 18,4 21,2 15,6 3 2 8 4 N 1010,1 18 0 0,0
15.06.2019 06:00:00 15,8 15,0 14,2 18,4 21,4 15,6 3 1 8 4 SE 1010,0 20 0 0,0
15.06.2019 05:00:00 17,2 15,7 15,2 19,1 21,7 15,6 2 1 9 5 - 1009,7 10 0 0,0
15.06.2019 04:00:00 18,4 15,5 16,8 19,8 21,9 15,6 4 2 15 8 - 1009,8 10 0 0,0
15.06.2019 03:00:00 19,3 15,9 17,0 19,9 22,2 15,6 9 5 15 8 WSW 1010,1 30 0 0,0
15.06.2019 02:00:00 19,3 16,8 18,3 20,7 22,4 15,6 10 5 15 8 SW 1009,8 30 0 0,0
15.06.2019 01:00:00 18,0 15,9 16,5 21,1 22,7 15,6 8 4 11 6 E 1010,1 10 0 0,0
15.06.2019 00:00:00 19,5 16,5 18,4 22,3 22,8 15,6 9 5 9 5 E 1009,8 10 0 0,0
14.06.2019 23:00:00 23,3 16,2 20,5 23,3 23,0 15,6 8 4 12 7 NE 1009,4 10 0 0,0
14.06.2019 22:00:00 23,3 16,5 20,4 24,5 23,0 15,6 8 4 13 7 N 1010,0 10 0 0,0
14.06.2019 21:00:00 24,7 16,2 22,8 26,1 23,0 15,5 9 5 15 8 NNW 1009,7 10 0 0,0
14.06.2019 20:00:00 26,3 17,1 25,8 28,6 22,8 15,5 9 5 13 7 N 1010,2 10 37 0,0
14.06.2019 19:00:00 27,7 17,3 28,4 30,2 22,6 15,5 6 3 16 9 N 1010,4 50 24 0,0
14.06.2019 18:00:00 28,1 16,2 29,0 31,7 22,2 15,5 13 7 22 12 NE 1010,8 10 22 0,0
14.06.2019 17:00:00 28,5 16,6 29,5 32,5 21,7 15,5 9 5 24 13 NNE 1011,3 10 18 0,0
14.06.2019 16:00:00 28,9 15,7 32,6 35,2 21,0 15,5 15 8 27 14 NE 1012,0 45 60 0,0
14.06.2019 15:00:00 28,5 14,8 33,8 35,5 20,4 15,5 16 8 33 18 ENE 1012,9 45 60 0,0
14.06.2019 14:00:00 27,4 16,3 32,5 34,0 19,8 15,5 21 11 34 19 E 1013,7 10 60 0,0
14.06.2019 13:00:00 26,3 16,9 31,8 32,3 19,3 15,5 28 15 40 22 E 1014,3 10 60 0,0
14.06.2019 12:00:00 25,1 15,3 30,2 29,8 18,8 15,5 22 12 42 23 E 1015,0 10 60 0,0
14.06.2019 11:00:00 23,7 15,4 27,3 27,2 18,5 15,5 29 15 39 21 E 1015,4 40 60 0,0
14.06.2019 10:00:00 22,7 14,9 26,8 24,7 18,4 15,5 24 13 34 18 E 1015,8 10 60 0,0
14.06.2019 09:00:00 20,0 14,2 23,2 21,6 18,5 15,5 10 6 13 7 E 1016,5 35 60 0,0
14.06.2019 08:00:00 17,5 13,5 20,4 18,5 18,7 15,5 5 3 9 5 NE 1016,9 10 60 0,0
14.06.2019 07:00:00 13,9 12,6 14,1 15,1 19,0 15,5 3 2 4 2 ENE 1017,8 10 60 0,0
14.06.2019 06:00:00 9,7 9,3 8,4 13,0 19,3 15,5 0 0 5 3 N 1018,9 10 16 0,0
14.06.2019 05:00:00 10,1 10,1 8,0 13,3 19,6 15,5 4 2 8 4 E 1018,7 10 0 0,0
14.06.2019 04:00:00 9,8 9,7 8,4 13,9 20,0 15,5 2 1 5 3 - 1018,5 10 0 0,0
14.06.2019 03:00:00 10,5 10,2 8,3 14,6 20,4 15,5 0 0 4 2 N 1018,4 10 0 0,0
14.06.2019 02:00:00 12,1 12,1 9,6 15,4 20,7 15,5 0 0 4 2 N 1017,8 20 0 0,0
14.06.2019 01:00:00 13,3 12,9 10,4 16,3 21,0 15,5 2 1 8 4 - 1017,7 10 0 0,0
14.06.2019 00:00:00 14,2 12,9 11,4 17,5 21,3 15,5 2 1 4 2 - 1017,2 10 0 0,0
13.06.2019 23:00:00 16,0 12,1 12,3 18,7 21,5 15,5 2 1 9 5 SW 1016,4 50 0 0,0
13.06.2019 22:00:00 17,7 12,2 14,0 20,5 21,6 15,5 2 1 8 4 W 1015,6 10 7 0,0
13.06.2019 21:00:00 21,3 11,5 17,1 22,9 21,5 15,5 2 1 5 3 NW 1014,3 10 60 0,0
13.06.2019 20:00:00 23,2 12,5 22,9 26,1 21,3 15,5 5 3 13 7 N 1013,2 50 60 0,0
13.06.2019 19:00:00 23,2 12,3 25,3 28,1 20,9 15,5 5 3 18 10 NE 1012,7 10 60 0,0
13.06.2019 18:00:00 23,5 11,7 26,6 28,8 20,4 15,6 5 3 16 9 N 1012,6 10 58 0,0
13.06.2019 17:00:00 23,5 12,1 28,1 29,2 19,8 15,6 4 2 18 10 - 1012,4 10 42 0,0

tt = Température de l'air
td = dewpoint
tt 5cm = Température de l'air 5cm
tt -5cm = Température de l'air -5cm
tt -20cm = Température de l'air -20cm
tt -100cm = Température de l'air -100cm
ff = Vitesse du vent
fx = gusts
dd = Direction du vent
ppp = reduced air pressure
vv = visibility
sd = Ensoleillement
rr = Quantités de précipitations

stations d'obs. à proximité